Spokane, WA

8:52 PM PST on February 21, 2017 (GMT -0800)
Felts

Weather History for KSFF - September, 2013

Change the Weather History Date:

Sunday, September 22, 2013

  Actual Average Record
Temperature  
Mean Temperature 56 °F 58 °F  
Max Temperature 64 °F 72 °F 87 °F (1999)
Min Temperature 48 °F 44 °F 30 °F (2000)
Degree Days  
Heating Degree Days 9 7  
Month to date heating degree days 35 94  
Since 1 July heating degree days 40 140  
Cooling Degree Days 0 0  
Month to date cooling degree days 101 29  
Year to date cooling degree days 704 405  
Growing Degree Days 6 (Base 50)    
Moisture  
Dew Point 46 °F    
Average Humidity 65    
Maximum Humidity 86    
Minimum Humidity 43    
Precipitation  
Precipitation 0.04 in 0.03 in 0.05 in (2008)
Month to date precipitation 1.08 0.58  
Year to date precipitation 10.76 11.32  
Sea Level Pressure  
Sea Level Pressure 29.70 in    
Wind  
Wind Speed 9 mph (SW)    
Max Wind Speed 22 mph    
Max Gust Speed 28 mph    
Visibility 10 miles    
Events Rain    
T = Trace of Precipitation, MM = Missing Value Source: NWS Daily Summary

Daily Weather History Graph

Daily Weather History Graph

Search for Another Location

Airport or City:

Trip Planner

Search our weather history database for the weather conditions in past years. The results will help you decide how hot, cold, wet, or windy it might be!

Date:

Astronomy

Sep. 22, 2013 Rise Set
Actual Time 6:36 AM PDT 6:46 PM PDT
Civil Twilight 6:05 AM PDT 7:17 PM PDT
Nautical Twilight 5:29 AM PDT 7:53 PM PDT
Astronomical Twilight 4:51 AM PDT 8:30 PM PDT
Moon 8:21 PM PDT 10:18 AM PDT
Length of Visible Light 13h 11m
Length of Day
12h 09m
Waning Gibbous, 88% of the Moon is Illuminated
Sep 22
Waning Gibbous
Sep 26
Last Quarter
Oct 4
New
Oct 11
First Quarter
Oct 18
Full

Hourly Weather History & Observations

Time (PDT) Temp. Dew Point Humidity Pressure Visibility Wind Dir Wind Speed Gust Speed Precip Events Conditions
12:53 AM 48.0 °F 43.0 °F 83% 29.67 in 10.0 mi ENE 4.6 mph - N/A   Clear
1:53 AM 48.9 °F 44.1 °F 83% 29.66 in 10.0 mi Calm Calm - N/A   Clear
2:53 AM 50.0 °F 44.1 °F 80% 29.67 in 10.0 mi NNE 3.5 mph - N/A   Clear
3:53 AM 52.0 °F 44.1 °F 74% 29.68 in 10.0 mi Calm Calm - N/A   Partly Cloudy
4:53 AM 54.0 °F 45.0 °F 72% 29.69 in 10.0 mi Variable 6.9 mph - N/A   Overcast
5:53 AM 54.0 °F 45.0 °F 72% 29.69 in 10.0 mi SSW 8.1 mph - N/A   Overcast
6:53 AM 53.1 °F 46.0 °F 77% 29.70 in 10.0 mi South 6.9 mph - N/A   Overcast
7:37 AM 53.6 °F 46.4 °F 77% 29.72 in 10.0 mi SSW 8.1 mph 16.1 mph N/A   Overcast
7:53 AM 54.0 °F 46.0 °F 75% 29.71 in 10.0 mi SSW 8.1 mph - N/A   Overcast
8:53 AM 54.0 °F 46.0 °F 75% 29.73 in 10.0 mi SSW 8.1 mph - N/A   Mostly Cloudy
9:53 AM 55.9 °F 46.0 °F 69% 29.74 in 10.0 mi SSW 5.8 mph - N/A   Mostly Cloudy
10:53 AM 57.9 °F 45.0 °F 62% 29.72 in 10.0 mi South 10.4 mph 16.1 mph N/A   Mostly Cloudy
11:53 AM 59.0 °F 44.1 °F 58% 29.72 in 10.0 mi SW 15.0 mph - N/A   Overcast
12:00 PM 59.0 °F 44.6 °F 59% 29.72 in 10.0 mi SSW 11.5 mph - N/A   Mostly Cloudy
12:53 PM 61.0 °F 44.1 °F 54% 29.71 in 10.0 mi SW 12.7 mph - N/A   Mostly Cloudy
1:53 PM 61.0 °F 44.1 °F 54% 29.69 in 10.0 mi SSW 9.2 mph - N/A   Overcast
2:53 PM 64.0 °F 43.0 °F 46% 29.67 in 10.0 mi SSW 15.0 mph - N/A   Overcast
3:53 PM 63.0 °F 42.1 °F 46% 29.66 in 10.0 mi SW 10.4 mph - N/A   Overcast
4:53 PM 63.0 °F 39.0 °F 41% 29.66 in 10.0 mi SW 16.1 mph - N/A   Overcast
5:53 PM 62.1 °F 39.9 °F 44% 29.67 in 10.0 mi SW 10.4 mph 18.4 mph N/A   Overcast
6:53 PM 55.0 °F 48.0 °F 77% 29.71 in 10.0 mi SW 12.7 mph 21.9 mph 0.00 in Rain Light Rain
7:53 PM 53.1 °F 48.9 °F 86% 29.71 in 10.0 mi SW 4.6 mph - 0.03 in   Overcast
8:11 PM 53.6 °F 48.2 °F 82% 29.72 in 10.0 mi Variable 3.5 mph - 0.00 in Rain Light Rain
8:21 PM 53.6 °F 48.2 °F 82% 29.72 in 10.0 mi SW 9.2 mph - 0.01 in Rain Light Rain
8:28 PM 53.6 °F 48.2 °F 82% 29.72 in 10.0 mi SSW 5.8 mph - 0.01 in   Overcast
8:53 PM 53.1 °F 48.0 °F 83% 29.71 in 10.0 mi SSW 4.6 mph - 0.01 in   Overcast
9:02 PM 53.6 °F 48.2 °F 82% 29.71 in 10.0 mi Variable 3.5 mph - N/A   Overcast
9:11 PM 53.6 °F 48.2 °F 82% 29.71 in 10.0 mi Variable 3.5 mph - 0.00 in Rain Light Rain
9:42 PM 53.6 °F 48.2 °F 82% 29.72 in 10.0 mi WSW 8.1 mph - 0.00 in Rain Light Rain
9:53 PM 53.1 °F 48.9 °F 86% 29.72 in 10.0 mi SW 8.1 mph - 0.00 in   Overcast
10:29 PM 53.6 °F 48.2 °F 82% 29.73 in 10.0 mi SW 12.7 mph - N/A   Overcast
10:53 PM 53.1 °F 48.9 °F 86% 29.72 in 10.0 mi SW 11.5 mph 19.6 mph N/A   Overcast
11:35 PM 53.6 °F 48.2 °F 82% 29.74 in 10.0 mi WSW 9.2 mph - N/A   Overcast
11:53 PM 54.0 °F 48.9 °F 83% 29.73 in 10.0 mi SW 11.5 mph 17.3 mph N/A   Overcast